This demonstration page uses our WeatherBlox Daily Observations layout. Learn more.

36.17497, -115.13722

Hourly Observations for September 25, 2018

Temp ( °F °C ) Dew Point ( °F °C ) Humidity (%) Winds ( mph kmh ) Pressure ( in mb ) Visibility ( mi km ) Precip ( " mm )
12:53 am 00:53 Clear 80 26.7 36 2.2 20 20 N 6 9 29.8 1009 10 16.09344 0 0
1:53 am 01:53 Clear 77 25 35 1.7 22 22 WNW 6 9 29.8 1009 10 16.09344 0 0
2:53 am 02:53 Clear 78 25.6 36 2.2 22 22 WSW 3 6 29.83 1010 10 16.09344 0 0
3:53 am 03:53 Clear 78 25.6 32 0 19 19 N 9 15 29.83 1010 10 16.09344 0 0
4:53 am 04:53 Clear 78 25.6 29 -1.7 16 16 NNW 15 24 29.83 1010 10 16.09344 0 0
5:53 am 05:53 Clear 77 25 28 -2.2 16 16 NNW 12 19 29.85 1011 10 16.09344 0 0
6:53 am 06:53 Sunny 75 23.9 27 -2.8 17 17 NNW 5 7 29.88 1012 10 16.09344 0 0
7:53 am 07:53 Sunny 78 25.6 27 -2.8 15 15 N 6 9 29.91 1013 10 16.09344 0 0
8:53 am 08:53 Sunny 82 27.8 26 -3.3 13 13 N 9 15 29.94 1014 10 16.09344 0 0
9:53 am 09:53 Sunny 85 29.4 26 -3.3 12 12 NNW 3 6 29.94 1014 10 16.09344 0 0
10:53 am 10:53 Sunny 87 30.6 28 -2.2 12 12 Calm 29.94 1014 10 16.09344 0 0
11:53 am 11:53 Sunny 88 31.1 28 -2.2 11 11 SE 6 9 29.94 1014 10 16.09344 0 0
12:53 pm 12:53 Sunny 91 32.8 29 -1.7 11 11 N 3 6 29.91 1013 10 16.09344 0 0
1:53 pm 13:53 Sunny 92 33.3 30 -1.1 11 11 ESE 3 6 29.88 1012 10 16.09344 0 0
2:53 pm 14:53 Sunny 93 33.9 30 -1.1 10 10 SE 7 11 29.88 1012 10 16.09344 0 0
3:53 pm 15:53 Sunny 93 33.9 32 0 11 11 Calm 29.85 1011 10 16.09344 0 0
4:53 pm 16:53 Sunny 95 35 33 0.6 11 11 ESE 3 6 29.85 1011 10 16.09344 0 0
5:53 pm 17:53 Sunny 94 34.4 32 0 11 11 Calm 29.85 1011 10 16.09344 0 0
6:53 pm 18:53 Clear 92 33.3 32 0 12 12 Calm 29.85 1011 10 16.09344 0 0
7:53 pm 19:53 Clear 89 31.7 35 1.7 15 15 WSW 6 9 29.85 1011 10 16.09344 0 0
8:53 pm 20:53 Clear 86 30 36 2.2 17 17 NNW 5 7 29.88 1012 10 16.09344 0 0
9:53 pm 21:53 Clear 83 28.3 34 1.1 17 17 N 6 9 29.88 1012 10 16.09344 0 0
10:53 pm 22:53 Clear 80 26.7 33 0.6 18 18 NW 6 9 29.91 1013 10 16.09344 0 0
11:53 pm 23:53 Clear 79 26.1 35 1.7 20 20 NW 9 15 29.91 1013 10 16.09344 0 0

Powered by AerisWeather